Location: Unspecified
(0.0000°N, 0.0000°E)
Time: 13:07:27
(UTC+00:00)

Hubble Space Telescope - Visible Passes

Search period start: 09 July 2025 00:00
Search period end: 19 July 2025 00:00
Orbit: 488 x 490 km, 28.5° (Epoch: 08 July)

Date Brightness Start Highest point End Pass type
(mag) Time Alt. Az. Time Alt. Az. Time Alt. Az.
11 Jul 3.5 20:06:33 10° SW 20:06:40 11° SW 20:06:40 11° SW visible
12 Jul 1.3 19:39:47 10° SW 19:42:32 42° SSW 19:42:32 42° SSW visible
13 Jul 0.4 19:13:01 10° SW 19:16:51 68° SSE 19:18:31 31° ENE visible
14 Jul 3.7 05:22:09 10° N 05:23:19 11° NNE 05:24:30 10° NE visible
14 Jul 0.5 18:46:15 10° SW 18:50:05 74° SSE 18:53:54 10° ENE visible
14 Jul 3.6 20:27:44 10° WNW 20:28:58 14° NW 20:28:58 14° NW visible
15 Jul 3.6 04:55:05 10° N 04:56:35 12° NNE 04:58:03 10° NE visible
15 Jul 3.3 20:01:07 10° WNW 20:03:22 15° NNW 20:04:59 12° N visible
16 Jul 3.5 04:28:05 10° N 04:29:49 13° NNE 04:31:33 10° NE visible
16 Jul 3.5 19:34:32 10° WNW 19:36:36 14° NNW 19:38:41 10° N visible
17 Jul 3.4 04:01:48 12° N 04:03:03 13° NNE 04:05:00 10° ENE visible
17 Jul 0.6 05:39:17 10° WNW 05:43:07 89° NNE 05:46:58 10° ESE visible
17 Jul 3.5 19:07:57 10° WNW 19:09:50 13° NNW 19:11:43 10° N visible
18 Jul 3.9 03:37:49 12° NE 03:37:49 12° NE 03:38:24 10° ENE visible
18 Jul 0.5 05:12:31 10° WNW 05:16:20 85° SSW 05:20:10 10° ESE visible
18 Jul 3.6 18:41:23 10° NW 18:43:03 12° NNW 18:44:43 10° N visible
